This is the latest recevied weather packets stored in our database for station/object KD7AWQ. If no packets are shown the sender has not sent any weather packets the latest 10 day(s).
| Time | Temp. | Humidity | Pressure | Rain* | Wind** | Luminosity | Snow |
|---|---|---|---|---|---|---|---|
| 1777833190 | 21.67° C | 33% | 1186.2 hPa | 0 mm | - | 721 W/m² | - |
| 1777832887 | 22.22° C | 33% | 1186.2 hPa | 0 mm | - | 588 W/m² | - |
| 1777832586 | 21.67° C | 34% | 1186.3 hPa | 0 mm | - | 735 W/m² | - |
| 1777832283 | 21.67° C | 34% | 1186.2 hPa | 0 mm | - | 591 W/m² | - |
| 1777831980 | 21.67° C | 34% | 1186.3 hPa | 0 mm | - | 583 W/m² | - |
| 1777831676 | 21.67° C | 34% | 1186.1 hPa | 0 mm | - | 498 W/m² | - |
| 1777831374 | 21.67° C | 34% | 1186.4 hPa | 0 mm | - | 472 W/m² | - |
| 1777831070 | 21.11° C | 35% | 1186.6 hPa | 0 mm | - | 437 W/m² | - |
| 1777830769 | 21.67° C | 34% | 1186.5 hPa | 0 mm | - | 457 W/m² | - |
| 1777830464 | 21.67° C | 34% | 1186.5 hPa | 0 mm | - | 430 W/m² | - |
| 1777830162 | 21.11° C | 35% | 1186.5 hPa | 0 mm | - | 422 W/m² | - |
| 1777829862 | 21.67° C | 34% | 1186.6 hPa | 0 mm | - | 515 W/m² | - |
| 1777829558 | 21.11° C | 35% | 1186.5 hPa | 0 mm | - | 607 W/m² | - |
| 1777829256 | 21.11° C | 35% | 1186.7 hPa | 0 mm | - | 390 W/m² | - |
| 1777828953 | 21.11° C | 35% | 1186.6 hPa | 0 mm | - | 519 W/m² | - |
| 1777828649 | 20.56° C | 35% | 1187.1 hPa | 0 mm | - | 445 W/m² | - |
| 1777828346 | 21.67° C | 34% | 1186.9 hPa | 0 mm | - | 471 W/m² | - |
| 1777828043 | 21.11° C | 34% | 1187 hPa | 0 mm | - | 489 W/m² | - |
| 1777827740 | 21.11° C | 34% | 1186.7 hPa | 0 mm | - | 651 W/m² | - |
| 1777827437 | 21.11° C | 35% | 1186.7 hPa | 0 mm | - | 801 W/m² | - |
| 1777827134 | 20.56° C | 36% | 1186.4 hPa | 0 mm | - | 425 W/m² | - |
| 1777826830 | 21.11° C | 35% | 1186.6 hPa | 0 mm | - | 473 W/m² | - |
| 1777826528 | 21.67° C | 33% | 1186.7 hPa | 0 mm | - | 844 W/m² | - |
| 1777826224 | 21.11° C | 34% | 1186.9 hPa | 0 mm | - | 905 W/m² | - |
| 1777825922 | 21.11° C | 35% | 1186.7 hPa | 0 mm | - | 727 W/m² | - |
* Rain latest hour (hover to see other rain measurements)
** Current wind speed in m/s (hover to see current wind gust speed)